+ View the NASA Portal
+ Center for Near-Earth Object Studies
IMPORTANT:
The SSD Announcement email list is now available. Major changes are coming in the near future, including possible hostname and/or URL changes. To be notified of such changes, subscribe to this email list.
Please visit
this page
for more details.
Don't show this message again
JPL Small-Body Database Browser
Search:
[
help
]
233281 (2006 AO77)
Classification:
Main-belt Asteroid
SPK-ID:
2233281
[
Ephemeris
|
Orbit Diagram
|
Orbital Elements
|
Mission Design
|
Physical Parameters
|
Discovery Circumstances
|
Close-Approach Data
]
[ show orbit diagram ]
Orbital Elements at Epoch 2458600.5 (2019-Apr-27.0) TDB
Reference:
JPL 15
(heliocentric ecliptic J2000)
Element
Value
Uncertainty (1-sigma)
Units
e
.1716191602063449
6.8237e-08
a
2.444608764094811
1.5582e-08
au
q
2.025067060967789
1.6342e-07
au
i
1.514829824337484
7.7006e-06
deg
node
215.6477914163016
0.000199
deg
peri
7.152048119170556
0.0001999
deg
M
89.48976239230434
1.7623e-05
deg
t
p
2458253.456969033503
(2018-May-14.95696903)
6.819e-05
TDB
period
1396.086969146795
3.82
1.3348e-05
3.654e-08
d
yr
n
.2578635915640775
2.4654e-09
deg/d
Q
2.864150467221833
1.8256e-08
au
Orbit Determination Parameters
# obs. used (total)
286
data-arc span
7467 days (20.44 yr)
first obs. used
1999-05-18
last obs. used
2019-10-27
planetary ephem.
DE431
SB-pert. ephem.
SB431-N16
condition code
0
norm. resid. RMS
.63987
source
ORB
producer
Otto Matic
solution date
2019-Nov-08 01:35:25
Additional Information
Earth MOID
= 1.01652 au
Jupiter MOID
= 2.11479 au
T_jup
= 3.479
[ show covariance matrix ]
[
Ephemeris
|
Orbit Diagram
|
Orbital Elements
|
Mission Design
|
Physical Parameters
|
Discovery Circumstances
|
Close-Approach Data
]
Physical Parameter Table
Parameter
Symbol
Value
Units
Sigma
Reference
Notes
absolute magnitude
H
16.9
n/a
MPO450069
233281 (2006 AO77)
Discovered 2006-Jan-06 by Mt. Lemmon Survey at Mount Lemmon
Reference:
20100228/Numbers.arc
Last Updated:
2010-03-03
[ show close-approach data ]
Alternate Designations
2006 AO77
= 1999 LY28
[
Ephemeris
|
Orbit Diagram
|
Orbital Elements
|
Mission Design
|
Physical Parameters
|
Discovery Circumstances
|
Close-Approach Data
]
2019-Dec-13 06:40 UT
(server date/time)
Site Manager:
Ryan S. Park
Webmaster
:
Alan B. Chamberlin